#timestamp,LO_Frequency,Hit,StdDev 
1634094015.7,286047000.6,N
1634094035.5,286047001.1,N
1634094055.4,286046998.9,N
1634094075.2,286046996.7,N
1634094095.0,286046994.0,N
1634094095.9,286046994.0,N
1634094115.8,286046992.3,N
1634094135.7,286046997.1,N
1634094155.5,286046996.9,N
1634094175.3,286047001.3,N
1634094195.2,286047001.0,N
1634094215.0,286046995.9,N
1634094215.9,286046995.9,N
1634094235.7,286046990.2,Y
1634094255.6,286046992.9,P
1634094275.4,286046997.5,N
1634094295.3,286046997.6,N
1634094315.1,286046994.8,N
1634094316.0,286046994.8,N
1634094335.8,286046991.9,Y
1634094355.7,286046999.2,P
1634094375.5,286046993.9,P
1634094395.4,286046994.6,N
1634094415.2,286046991.9,Y
1634094435.0,286046998.8,P
1634094435.9,286046998.8,N
1634094455.8,286047004.7,P
1634094475.6,286047003.0,N
1634094495.4,286046998.6,N
1634094515.3,286046993.4,N
1634094535.1,286047000.7,N
1634094555.9,286047001.2,N
1634094575.7,286046998.1,N
1634094595.5,286047002.6,N
1634094615.4,286046999.3,N
1634094635.2,286046999.0,N
1634094655.0,286046995.3,N
1634094655.9,286046995.3,N
1634094675.8,286047001.0,N
1634094695.6,286047001.6,N
1634094715.5,286047002.6,N
1634094735.3,286046998.2,N
1634094755.1,286046996.3,N
1634094775.9,286046996.1,N
1634094795.7,286046994.7,N
1634094815.5,286046993.6,N
1634094835.4,286046995.2,N
1634094855.2,286047000.1,N
1634094875.1,286046997.0,N
1634094876.0,286046997.0,N
1634094895.8,286046990.9,Y
1634094915.6,286046996.4,P
1634094935.5,286046996.8,P
1634094955.3,286046999.4,N
1634094975.1,286046999.8,N
1634094995.9,286047000.3,N
1634095015.7,286047002.6,N
1634095035.6,286046999.2,N
1634095055.4,286047005.9,Y
1634095075.2,286047001.9,P
1634095095.1,286047002.3,N
1634095096.0,286047002.3,N
1634095115.8,286047003.6,N
1634095135.7,286047000.4,N
1634095155.5,286047000.1,N
1634095175.3,286046995.7,N
1634095195.2,286046991.7,Y
1634095215.0,286046993.9,P
1634095215.9,286046993.9,N
1634095235.7,286046993.9,N
1634095255.6,286046995.0,N
1634095275.4,286046999.2,N
1634095295.3,286047001.1,N
1634095315.1,286047002.7,N
1634095316.0,286047002.7,N
1634095335.8,286047000.4,N
1634095355.7,286047002.0,N
1634095375.5,286047000.8,N
1634095395.3,286046995.7,N
1634095415.2,286046994.5,N
1634095435.0,286046996.1,N
1634095435.9,286046996.1,N
1634095455.8,286047000.8,N
1634095475.6,286046997.1,N
1634095495.4,286046995.0,N
1634095515.3,286046992.1,N
1634095535.1,286046992.7,N
1634095555.9,286046998.8,N
1634095575.7,286046997.3,N
1634095595.5,286046994.2,N
1634095615.4,286046992.0,N
1634095635.2,286046993.1,N
1634095655.0,286046994.0,N
1634095655.9,286046994.0,N
1634095675.8,286046990.7,N
1634095695.6,286046995.1,N
1634095715.5,286046990.4,N
1634095735.3,286046991.9,N
1634095755.1,286046989.0,Y
1634095775.9,286046995.7,P
1634095795.7,286046994.3,P
1634095815.6,286046991.2,P
1634095835.4,286046988.8,Y
1634095855.3,286046999.6,P
1634095875.1,286046997.1,N
1634095876.0,286046997.1,N
1634095895.8,286046998.8,N
1634095915.7,286046999.4,N
1634095935.5,286046997.7,N
1634095955.4,286046998.0,N
1634095975.2,286047011.9,Y
1634095995.0,286047000.1,P
1634095995.9,286047000.1,N
1634096015.8,286046999.1,N
1634096035.6,286046996.7,Y
1634096055.5,286046998.1,P
1634096075.3,286047003.2,P
1634096095.1,286047005.8,N
1634096115.9,286047001.5,N
1634096135.7,286047000.3,N
1634096155.5,286047000.2,N
1634096175.4,286047004.1,N
1634096195.2,286047003.8,N
1634096215.0,286047001.0,N
1634096216.0,286047001.0,N
1634096235.8,286046997.8,N
1634096255.6,286046999.9,N
1634096275.5,286046998.0,N
1634096295.3,286046998.8,N
1634096315.1,286047000.3,N
1634096335.9,286046997.0,N
1634096355.7,286046991.7,Y
1634096375.6,286046994.8,P
1634096395.4,286046994.3,N
1634096415.2,286046994.3,N
1634096435.1,286046992.0,Y
1634096436.0,286046992.0,P
1634096455.8,286046997.7,N
1634096475.7,286047002.6,N
1634096495.5,286047000.6,N
1634096515.3,286047001.6,N
1634096535.2,286047005.7,N
1634096555.9,286047005.1,N
1634096575.7,286047001.1,N
1634096595.6,286047000.5,N
1634096615.4,286046999.9,N
1634096635.3,286047005.5,N
1634096655.1,286047006.0,N
1634096656.0,286047006.0,N
1634096675.8,286047001.5,N
1634096695.7,286046997.0,N
1634096715.5,286047000.5,N
1634096735.3,286046999.9,N
1634096755.2,286047003.8,N
1634096775.0,286047003.0,N
1634096775.9,286047003.0,N
1634096795.8,286047004.5,N
1634096815.6,286047005.8,N
1634096835.4,286047005.6,N
1634096855.3,286047007.4,N
1634096875.1,286047008.9,N
1634096895.9,286047010.3,N
1634096915.7,286047012.1,N
1634096935.5,286047009.8,N
1634096955.4,286047008.5,N
1634096975.2,286047006.6,N
1634096995.0,286047007.7,N
1634096996.0,286047007.7,N
1634097015.8,286047009.6,N
1634097035.7,286047006.3,N
1634097055.5,286047006.7,N
1634097075.3,286047010.8,Y
1634097095.2,286047003.5,P
1634097115.0,286047003.4,P
1634097115.9,286047003.4,P
1634097135.8,286047007.5,Y
1634097155.6,286047005.4,P
1634097175.4,286047003.9,P
1634097195.3,286047006.0,P
1634097215.1,286047007.6,Y
1634097235.9,286047003.7,P
1634097255.7,286047004.7,P
1634097275.5,286047010.8,P
1634097295.4,286047006.5,N
1634097315.2,286047006.1,N
1634097335.1,286047010.7,Y
1634097336.0,286047010.7,P
1634097355.8,286047003.8,N
1634097375.6,286047001.4,N
1634097395.5,286047002.1,N
1634097415.3,286047007.5,N
1634097435.2,286047001.6,N
1634097455.9,286047001.1,N
1634097475.7,286046999.2,N
1634097495.6,286046996.8,N
1634097515.4,286046997.0,N
1634097535.2,286046997.5,N
1634097555.1,286047002.0,N
1634097556.0,286047002.0,N
1634097575.8,286047002.8,N
1634097595.7,286046998.1,N
